Location: Zagreb
(45.8000°N, 16.0000°E)
Time: 09:01:19
(UTC+01:00)

ISS - Visible Passes

Search period start: 22 January 2017 00:00
Search period end: 01 February 2017 00:00
Orbit: 399 x 410 km, 51.6° (Epoch: 22 January)

Date Brightness Start Highest point End Pass type
(mag) Time Alt. Az. Time Alt. Az. Time Alt. Az.
27 Jan -0.8 18:42:08 10° S 18:42:44 12° SSE 18:42:44 12° SSE visible
28 Jan -0.7 19:24:50 10° SW 19:25:42 17° SW 19:25:42 17° SW visible
29 Jan -2.4 18:32:52 10° SSW 18:35:51 33° SE 18:35:53 33° SE visible
30 Jan -1.5 17:41:17 10° S 17:43:42 19° SE 17:45:58 11° E visible
30 Jan -1.7 19:16:38 10° WSW 19:18:39 34° WSW 19:18:39 34° WSW visible
31 Jan -3.4 18:24:18 10° SW 18:27:33 71° SSE 18:28:39 38° ENE visible
31 Jan 0.3 20:01:12 10° W 20:01:19 11° WNW 20:01:19 11° WNW visible
